Change the Weather History Date:

Monday, July 15, 2013

  Actual Average Record
Temperature  
Mean Temperature 77 °F 67 °F  
Max Temperature 92 °F 80 °F 97 °F (1931)
Min Temperature 61 °F 55 °F 37 °F (1987)
Degree Days  
Heating Degree Days 0 1  
Month to date heating degree days 6 27  
Since 1 June heating degree days 108 151  
Since 1 July heating degree days 6 27  
Cooling Degree Days 12 4  
Month to date cooling degree days 70 57  
Year to date cooling degree days 189 132  
Since 1 June cooling degree days 149 116  
Growing Degree Days 26 (Base 50)    
Moisture  
Dew Point 64 °F    
Average Humidity 69    
Maximum Humidity 100    
Minimum Humidity 38    
Precipitation  
Precipitation 0.00 in 0.09 in 2.87 in (1932)
Month to date precipitation 0.47 1.25  
Year to date precipitation 17.70 14.21  
Sea Level Pressure  
Sea Level Pressure 30.29 in    
Wind  
Wind Speed 2 mph (SW)    
Max Wind Speed 7 mph    
Max Gust Speed 12 mph    
Visibility 7 miles    
Events      
T = Trace of Precipitation, MM = Missing Value Source: NWS Daily Summary

Daily Weather History Graph

Daily Weather History Graph

Search for Another Location

Airport or City:

Trip Planner

Search our weather history database for the weather conditions in past years. The results will help you decide how hot, cold, wet, or windy it might be!

Date:

Astronomy

Jul. 15, 2013 Rise Set
Actual Time 6:08 AM EDT 9:20 PM EDT
Civil Twilight 5:33 AM EDT 9:55 PM EDT
Nautical Twilight 4:47 AM EDT 10:40 PM EDT
Astronomical Twilight 3:52 AM EDT 11:35 PM EDT
Moon 1:46 PM EDT (7/15) 12:14 AM EDT (7/15)
Length of Visible Light 16h 21m
Length of Day
15h 11m
Waxing Crescent, 45% of the Moon is Illuminated
Jul 15
Waxing Crescent
Jul 15
First Quarter
Jul 22
Full
Jul 29
Last Quarter
Aug 6
New

Hourly Weather History & Observations

Time (EDT) Temp. Heat Index Dew Point Humidity Pressure Visibility Wind Dir Wind Speed Gust Speed Precip Events Conditions
12:53 AM 69.1 °F - 66.0 °F 90% 30.28 in 10.0 mi Calm Calm - N/A   Clear
1:53 AM 64.9 °F - 64.0 °F 97% 30.29 in 8.0 mi Calm Calm - N/A   Clear
2:53 AM 63.0 °F - 62.1 °F 97% 30.28 in 6.0 mi East 3.5 mph - N/A   Clear
3:53 AM 63.0 °F - 63.0 °F 100% 30.29 in 1.0 mi Calm Calm - N/A   Clear
4:00 AM 62.6 °F - 62.6 °F 100% 30.30 in 0.8 mi Calm Calm - N/A   Clear
4:02 AM 62.6 °F - 62.6 °F 100% 30.30 in 1.5 mi Calm Calm - N/A   Clear
4:04 AM 62.6 °F - 62.6 °F 100% 30.30 in 4.0 mi Calm Calm - N/A   Clear
4:43 AM 62.6 °F - 62.6 °F 100% 30.30 in 1.2 mi ESE 3.5 mph - N/A   Partly Cloudy
4:45 AM 62.6 °F - 62.6 °F 100% 30.30 in 0.8 mi East 3.5 mph - N/A   Mist
4:53 AM 62.1 °F - 62.1 °F 100% 30.29 in 0.8 mi Calm Calm - N/A   Clear
4:56 AM 62.6 °F - 62.6 °F 100% 30.30 in 1.2 mi Calm Calm - N/A   Clear
4:58 AM 62.6 °F - 62.6 °F 100% 30.31 in 3.0 mi Calm Calm - N/A   Clear
5:53 AM 62.1 °F - 61.0 °F 96% 30.30 in 6.0 mi Calm Calm - N/A   Clear
6:53 AM 62.1 °F - 61.0 °F 96% 30.31 in 7.0 mi Calm Calm - N/A   Clear
7:53 AM 69.1 °F - 66.9 °F 93% 30.32 in 8.0 mi Calm Calm - N/A   Clear
8:53 AM 77.0 °F - 69.1 °F 76% 30.32 in 10.0 mi Calm Calm - N/A   Clear
9:53 AM 81.0 °F 84.1 °F 69.1 °F 67% 30.32 in 10.0 mi Variable 3.5 mph - N/A   Clear
10:53 AM 82.9 °F 86.5 °F 69.1 °F 63% 30.32 in 10.0 mi WSW 4.6 mph - N/A   Clear
11:53 AM 86.0 °F 89.4 °F 68.0 °F 55% 30.32 in 10.0 mi Variable 4.6 mph - N/A   Clear
12:53 PM 88.0 °F 90.3 °F 66.0 °F 48% 30.31 in 10.0 mi Variable 5.8 mph - N/A   Clear
1:53 PM 88.0 °F 88.7 °F 63.0 °F 43% 30.30 in 10.0 mi Variable 3.5 mph - N/A   Clear
2:53 PM 90.0 °F 90.6 °F 63.0 °F 40% 30.30 in 10.0 mi WNW 3.5 mph - N/A   Clear
3:53 PM 90.0 °F 90.6 °F 63.0 °F 40% 30.28 in 10.0 mi SW 4.6 mph - N/A   Clear
4:53 PM 91.9 °F 92.5 °F 62.1 °F 37% 30.27 in 10.0 mi Variable 3.5 mph - N/A   Clear
5:53 PM 91.0 °F 91.5 °F 62.1 °F 38% 30.26 in 10.0 mi West 4.6 mph - N/A   Clear
6:53 PM 91.0 °F 91.5 °F 62.1 °F 38% 30.25 in 10.0 mi WNW 3.5 mph - N/A   Clear
7:53 PM 90.0 °F 90.3 °F 62.1 °F 39% 30.25 in 10.0 mi Calm Calm - N/A   Clear
8:53 PM 84.0 °F 87.0 °F 68.0 °F 58% 30.25 in 10.0 mi Calm Calm - N/A   Clear
9:53 PM 75.0 °F - 66.9 °F 76% 30.26 in 10.0 mi Calm Calm - N/A   Clear
10:53 PM 73.0 °F - 68.0 °F 84% 30.28 in 10.0 mi Calm Calm - N/A   Clear
11:53 PM 72.0 °F - 69.1 °F 91% 30.28 in 10.0 mi East 3.5 mph - N/A   Clear